Regional Weather Roundup
Issued by NWS

Home | Current Version | Previous Version | Graphics & Text | Print | Product List | Glossary On
Versions: 1 2 3 4 5 6 7 8 9 10 11 12 13 14 15 16 17 18 19 20 21 22 23 24 25 26 27 28 29 30 31 32 33 34 35 36 37 38 39 40 41 42 43 44 45 46 47 48 49 50
000
ASUS43 KOAX 230302
RWRNE

WEATHER ROUNDUP FOR NEBRASKA
NATIONAL WEATHER SERVICE OMAHA NE
900 PM CST SAT NOV 22 2014

NOTES: SATELLITE DATA IS BEING USED TO AUGMENT CLOUD COVER ABOVE
       12000 FEET.
       "FAIR" INDICATES FEW OR NO CLOUDS BELOW 12,000 FEET WITH NO
       SIGNIFICANT WEATHER AND/OR OBSTRUCTIONS TO VISIBILITY.

  * THESE STATIONS DO NOT REPORT WEATHER SUCH AS RAIN...SNOW OR FOG.

NEZ001>004-019>022-054>056-230400-
NEBRASKA PANHANDLE

CITY           SKY/WX    TMP DP  RH WIND       PRES   REMARKS
SCOTTSBLUFF    CLOUDY    36  27  69 SE5       29.51F WCI  32
ALLIANCE       CLOUDY    39  28  64 SW7       29.50F WCI  34
CHADRON        CLOUDY    43  32  65 W3        29.46F
KIMBALL        CLOUDY    38  22  52 W9        29.55R WCI  31
SIDNEY         CLOUDY    45  26  47 W9        29.53F
$$

NEZ057>060-069>072-079>082-230400-
SOUTHWEST NEBRASKA

CITY           SKY/WX    TMP DP  RH WIND       PRES   REMARKS
NORTH PLATTE   CLOUDY    38  26  62 W3        29.53R
IMPERIAL       CLOUDY    45  16  31 NW8       29.55R
LEXINGTON      MOCLDY    51  31  47 S8        29.52R
MCCOOK         MOCLDY    49  22  34 SW12      29.51S
$$

NEZ005>010-023>029-035>040-094-230400-
NORTH CENTRAL NEBRASKA

CITY           SKY/WX    TMP DP  RH WIND       PRES   REMARKS
VALENTINE      LGT RAIN  50  33  52 W16       29.48R
AINSWORTH      CLOUDY    49  26  40 SW12      29.49R
BROKEN BOW     MOCLDY    43  30  60 S5        29.51S
ORD            PTCLDY    33  27  78 CALM      29.51S
$$

NEZ041-046>049-061>064-073>077-083>087-230400-
SOUTH CENTRAL NEBRASKA

CITY           SKY/WX    TMP DP  RH WIND       PRES   REMARKS
AURORA         CLOUDY    51  50  97 S12G17    29.55F
HASTINGS       MOCLDY    50  47  89 S13       29.55S
HEBRON         CLOUDY    57  51  82 S12       29.59S
HOLDREGE       CLOUDY    46  35  66 S8        29.54R
KEARNEY *      CLOUDY    46  37  71 SE13      29.56R
YORK           CLOUDY    54  50  87 S15G22    29.57S
$$

NEZ011>018-030>034-042>045-230400-
NORTHEAST NEBRASKA

CITY           SKY/WX    TMP DP  RH WIND       PRES   REMARKS
NORFOLK        MOCLDY    46  42  86 S20       29.50F
ALBION         MOCLDY    40  33  78 SE5       29.52F
BLAIR          CLOUDY    56  53  89 S14       29.58S
COLUMBUS *     CLOUDY    52  48  87 S12       29.57S
FREMONT        MOCLDY    55  51  85 S8        29.58S
TEKAMAH        MOCLDY    53  49  86 S13       29.57F
$$

NEZ050>053-065>068-078-088>093-230400-
SOUTHEAST NEBRASKA

CITY           SKY/WX    TMP DP  RH WIND       PRES   REMARKS
LINCOLN        CLOUDY    58  52  80 S16       29.59F
OMAHA EPPLEY   CLOUDY    55  53  93 S10       29.60S
BEATRICE       CLOUDY    57  53  84 S15G24    29.61S
FALLS CITY     CLOUDY    55  51  86 S14       29.66S
NEBRASKA CITY  CLOUDY    56  53  92 S21G28    29.61F
$$

NEZ044-045-051>053-067-230400-
OMAHA AREA

CITY           SKY/WX    TMP DP  RH WIND       PRES   REMARKS
OMAHA EPPLEY   CLOUDY    55  53  93 S10       29.60S
BLAIR          CLOUDY    56  53  89 S14       29.58S
FREMONT        MOCLDY    55  51  85 S8        29.58S
OFFUTT AFB     CLOUDY    55  53  91 S13       29.60S
WAHOO          CLOUDY    56  51  82 S13       29.58S
$$


USA.gov is the U.S. government's official web portal to all federal, state and local government web resources and services.